DW3478 Weather Reports


time (UTC)temp
C
wind
direction
speed
KPH
gust
KPH
rain 1hr
cm
rain 24hr
cm
rain mn
cm
humidity
%
barometer
mb
20260505160305 16 0 0.0 0.0 0.00 0.00 0.00 96 1012.4
20260505153305 16 0 0.0 0.0 0.00 0.00 0.00 96 1012.7
20260505152305 16 0 0.0 0.0 0.00 0.00 0.00 96 1012.8
20260505151805 16 0 0.0 0.0 0.00 0.00 0.00 96 1012.8
20260505151304 16 0 0.0 0.0 0.00 0.00 0.00 96 1012.8
20260505150804 16 0 0.0 0.0 0.00 0.00 0.00 96 1012.8
20260505140306 16 0 0.0 0.0 0.00 0.00 0.00 96 1013.0
20260505130306 16 12 1.6 4.8 0.00 0.00 0.00 96 1013.0
20260505121805 16 224 1.6 4.8 0.00 0.00 0.00 96 1012.9
20260505115305 16 178 1.6 4.8 0.00 0.00 0.00 95 1013.1
20260505114806 16 190 4.8 4.8 0.00 0.00 0.00 95 1013.1
20260505114305 16 204 4.8 8.0 0.00 0.00 0.00 94 1013.2
20260505113806 16 198 3.2 4.8 0.00 0.00 0.00 94 1013.2
20260505113305 17 216 4.8 4.8 0.00 0.00 0.00 94 1012.8
20260505112805 17 211 3.2 4.8 0.00 0.00 0.00 94 1013.1
20260505110805 17 117 3.2 4.8 0.00 0.00 0.00 95 1012.9
20260505101305 16 212 3.2 4.8 0.00 0.00 0.00 95 1012.4
20260505100806 16 134 1.6 3.2 0.00 0.00 0.00 95 1012.4
20260505100305 16 134 1.6 4.8 0.00 0.00 0.00 94 1012.4
20260505095806 16 134 1.6 4.8 0.00 0.00 0.00 94 1012.4
20260505095305 16 134 1.6 4.8 0.00 0.00 0.00 94 1012.4
20260505094806 16 136 1.6 4.8 0.00 0.00 0.00 95 1012.5
20260505092305 16 37 1.6 3.2 0.00 0.00 0.00 95 1012.1
20260505091305 15 33 0.0 3.2 0.00 0.00 0.00 95 1012.4
20260505090805 15 92 0.0 1.6 0.00 0.00 0.00 95 1012.3
20260505085805 15 92 0.0 1.6 0.00 0.00 0.00 94 1012.1
20260505084805 15 92 1.6 4.8 0.00 0.00 0.00 95 1012.2
20260505083805 15 92 0.0 3.2 0.00 0.00 0.00 94 1012.0
20260505083305 15 133 0.0 3.2 0.00 0.00 0.00 94 1011.9
20260505082305 15 134 1.6 3.2 0.00 0.00 0.00 94 1012.0
20260505081805 15 165 0.0 1.6 0.00 0.00 0.00 94 1011.9
20260505081305 15 165 0.0 4.8 0.00 0.00 0.00 94 1011.9
20260505080805 15 202 3.2 4.8 0.00 0.00 0.00 94 1011.8
20260505080305 15 75 0.0 4.8 0.00 0.00 0.00 94 1011.8
20260505075805 15 123 3.2 8.0 0.00 0.00 0.00 94 1011.8
20260505074305 15 20 1.6 3.2 0.00 0.00 0.00 94 1011.7
20260505073805 15 0 0.0 3.2 0.00 0.00 0.00 94 1011.7
20260505073305 15 101 3.2 4.8 0.00 0.00 0.00 94 1011.7
20260505072305 15 90 1.6 4.8 0.00 0.00 0.00 94 1011.6
20260505071805 15 90 1.6 4.8 0.00 0.00 0.00 94 1011.7
20260505070805 15 54 1.6 4.8 0.00 0.00 0.00 94 1011.8
20260505070305 15 17 1.6 3.2 0.00 0.00 0.00 94 1011.7
20260505065805 15 17 1.6 4.8 0.00 0.00 0.00 94 1011.6
20260505065305 15 17 0.0 3.2 0.00 0.00 0.00 94 1011.7
20260505064805 15 17 3.2 4.8 0.00 0.00 0.00 94 1011.7
20260505062305 15 12 0.0 0.0 0.00 0.00 0.00 94 1011.5
20260505060304 15 0 0.0 1.6 0.00 0.00 0.00 94 1011.6
20260505055805 15 0 0.0 1.6 0.00 0.00 0.00 94 1011.6
20260505054305 15 9 0.0 1.6 0.00 0.00 0.00 94 1011.5
20260505053305 15 9 0.0 1.6 0.00 0.00 0.00 94 1011.5
20260505051805 15 5 1.6 3.2 0.00 0.00 0.00 94 1011.4
20260505051305 15 5 0.0 0.0 0.00 0.00 0.00 94 1011.5
20260505050805 15 5 0.0 0.0 0.00 0.00 0.00 94 1011.7
20260505041305 15 329 0.0 1.6 0.00 0.00 0.00 94 1012.0
20260505040304 15 329 1.6 3.2 0.00 0.00 0.00 94 1012.1
20260505035805 15 329 0.0 1.6 0.00 0.00 0.00 94 1012.1
20260505035305 15 329 0.0 0.0 0.00 0.00 0.00 94 1012.2
20260505034305 15 329 0.0 0.0 0.00 0.00 0.00 94 1012.2
20260505033805 15 329 0.0 0.0 0.00 0.00 0.00 94 1012.2
20260505031805 15 329 0.0 1.6 0.00 0.00 0.00 94 1012.1
20260505031305 15 329 0.0 0.0 0.00 0.00 0.00 94 1012.1
20260505030805 15 329 0.0 1.6 0.00 0.00 0.00 93 1012.0
20260505030304 15 329 1.6 1.6 0.00 0.00 0.00 93 1012.1
20260505025805 15 329 1.6 3.2 0.00 0.00 0.00 93 1012.0
20260505025305 15 329 1.6 1.6 0.00 0.00 0.00 93 1012.0
20260505024805 15 327 1.6 1.6 0.00 0.00 0.00 93 1012.0
20260505023806 16 340 0.0 0.0 0.00 0.00 0.00 93 1012.2
20260505023304 16 340 1.6 1.6 0.00 0.00 0.00 93 1012.2
20260505022804 16 340 0.0 1.6 0.00 0.00 0.00 93 1012.3
20260505022305 16 340 1.6 1.6 0.00 0.00 0.00 93 1012.3
20260505021304 16 340 0.0 1.6 0.00 0.00 0.00 93 1012.5
20260505020305 16 340 0.0 0.0 0.00 0.00 0.00 93 1012.6
20260505015806 16 342 0.0 0.0 0.00 0.00 0.00 93 1012.7
20260505014305 16 355 0.0 0.0 0.00 0.00 0.00 93 1012.9
20260505013304 16 16 0.0 0.0 0.00 0.00 0.00 93 1012.9
20260505012805 16 19 0.0 0.0 0.00 0.00 0.00 93 1013.2
20260505012305 16 19 0.0 0.0 0.00 0.00 0.00 93 1013.1
20260505011805 16 19 0.0 0.0 0.00 0.00 0.00 93 1013.3
20260505010305 16 19 1.6 3.2 0.00 0.00 0.00 93 1013.3
20260505005804 16 329 1.6 3.2 0.00 0.00 0.00 93 1013.3
20260505004805 16 329 1.6 3.2 0.00 0.00 0.00 93 1013.5
20260505004305 16 329 0.0 1.6 0.00 0.00 0.00 93 1013.5
20260505003806 16 329 1.6 1.6 0.00 0.00 0.00 93 1013.5
20260505001805 16 329 1.6 3.2 0.00 0.00 0.00 93 1013.6
20260505001305 16 349 0.0 1.6 0.00 0.00 0.00 93 1013.4
20260505000305 16 0 0.0 1.6 0.00 0.00 0.00 93 1013.7
20260504235305 16 30 1.6 4.8 0.00 0.00 0.00 92 1013.6
20260504234805 16 48 1.6 4.8 0.00 0.00 0.00 93 1013.7
20260504233305 16 0 1.6 3.2 0.00 0.00 0.00 92 1013.5
20260504232305 16 0 0.0 1.6 0.00 0.00 0.00 92 1013.5
20260504231805 16 0 0.0 1.6 0.00 0.00 0.00 92 1013.7
20260504225804 16 36 0.0 1.6 0.00 0.00 0.00 92 1013.7
20260504225306 16 36 0.0 1.6 0.00 0.00 0.00 92 1013.7
20260504224805 16 36 1.6 1.6 0.00 0.00 0.00 92 1013.5
20260504224304 16 36 0.0 1.6 0.00 0.00 0.00 91 1013.6
20260504223805 16 36 0.0 0.0 0.00 0.00 0.00 91 1013.7
20260504223305 16 36 0.0 3.2 0.00 0.00 0.00 91 1013.8
20260504222805 16 36 1.6 3.2 0.00 0.00 0.00 91 1013.4
20260504222305 16 267 0.0 3.2 0.00 0.00 0.00 91 1013.5
20260504221305 16 267 0.0 1.6 0.00 0.00 0.00 91 1013.6
20260504215305 16 267 0.0 1.6 0.00 0.00 0.00 91 1013.7
20260504213304 17 267 0.0 1.6 0.00 0.00 0.00 91 1013.4
20260504212805 17 267 0.0 1.6 0.00 0.00 0.00 91 1013.4
20260504211304 17 267 0.0 0.0 0.00 0.00 0.00 90 1013.3
20260504210804 17 267 0.0 0.0 0.00 0.00 0.00 90 1013.4
20260504210304 17 267 0.0 0.0 0.00 0.00 0.00 90 1013.3
20260504205804 17 267 0.0 1.6 0.00 0.00 0.00 90 1013.3
20260504205304 17 267 0.0 1.6 0.00 0.00 0.00 90 1013.1
20260504204805 17 267 0.0 1.6 0.00 0.00 0.00 90 1013.0
20260504203805 17 267 0.0 0.0 0.00 0.00 0.00 90 1013.1
20260504200805 17 316 0.0 3.2 0.00 0.00 0.00 89 1012.8
20260504200304 17 273 0.0 1.6 0.00 0.00 0.00 89 1012.5
20260504194804 17 273 0.0 0.0 0.00 0.00 0.00 90 1012.4
20260504194305 17 273 0.0 0.0 0.00 0.00 0.00 89 1012.5
20260504193304 17 273 0.0 1.6 0.00 0.00 0.00 90 1012.4
20260504192805 17 273 0.0 1.6 0.00 0.00 0.00 89 1012.8
20260504190304 20 0 0.0 0.0 0.00 0.00 0.00 83 1012.4
20260504185805 20 0 0.0 0.0 0.00 0.00 0.00 83 1012.7
20260504185305 20 0 0.0 0.0 0.00 0.00 0.00 83 1012.8
20260504184804 20 0 0.0 0.0 0.00 0.00 0.00 83 1012.8
20260504182304 20 0 0.0 0.0 0.00 0.00 0.00 83 1012.9
20260504181804 20 0 0.0 0.0 0.00 0.00 0.00 83 1012.6
20260504181305 20 0 0.0 0.0 0.00 0.00 0.00 83 1012.5
20260504180805 20 0 0.0 0.0 0.00 0.00 0.00 83 1012.7
20260504180304 20 0 0.0 0.0 0.00 0.00 0.00 83 1012.5
20260504175805 20 0 0.0 0.0 0.00 0.00 0.00 83 1012.8
20260504175305 20 0 0.0 0.0 0.00 0.00 0.00 83 1012.7
20260504174304 20 0 0.0 0.0 0.00 0.00 0.00 83 1012.6
20260504173805 20 0 0.0 0.0 0.00 0.00 0.00 83 1012.6
20260504173305 20 0 0.0 0.0 0.00 0.00 0.00 83 1012.7
20260504172804 20 0 0.0 0.0 0.00 0.00 0.00 83 1012.7
20260504172305 20 0 0.0 0.0 0.00 0.00 0.00 83 1012.8